Hutchinson, KS

11:29 PM CST on December 11, 2017 (GMT -0600)
Hutchinson Municipal

Weather History for KHUT - December, 2012

Change the Weather History Date:

Monday, December 10, 2012

  Actual Average Record
Temperature  
Mean Temperature 22 °F -  
Max Temperature 36 °F 44 °F 70 °F (1996)
Min Temperature 9 °F 22 °F 6 °F (2005)
Degree Days  
Heating Degree Days 42    
Moisture  
Dew Point 1 °F    
Average Humidity 43    
Maximum Humidity 67    
Minimum Humidity 21    
Precipitation  
Precipitation 0.00 in - - ()
Sea Level Pressure  
Sea Level Pressure 30.12 in    
Wind  
Wind Speed 12 mph (West)    
Max Wind Speed 20 mph    
Max Gust Speed 28 mph    
Visibility 10 miles    
Events      
Averages and records for this station are not official NWS values.
T = Trace of Precipitation, MM = Missing Value Source: NWS Daily Summary

Daily Weather History Graph

Daily Weather History Graph

Search for Another Location

Airport or City:

Trip Planner

Search our weather history database for the weather conditions in past years. The results will help you decide how hot, cold, wet, or windy it might be!

Date:

Astronomy

Dec. 10, 2012 Rise Set
Actual Time 7:37 AM CST 5:11 PM CST
Civil Twilight 7:07 AM CST 5:41 PM CST
Nautical Twilight 6:34 AM CST 6:14 PM CST
Astronomical Twilight 6:02 AM CST 6:46 PM CST
Moon 4:23 AM CST (12/10) 3:00 PM CST (12/10)
Length of Visible Light 10h 33m
Length of Day
9h 34m
Waning Crescent, 10% of the Moon is Illuminated
Dec 10
Waning Crescent
Dec 13
New
Dec 19
First Quarter
Dec 28
Full
Jan 4
Last Quarter

Hourly Weather History & Observations

Time (CST) Temp. Windchill Dew Point Humidity Pressure Visibility Wind Dir Wind Speed Gust Speed Precip Events Conditions
12:52 AM 19.0 °F 3.6 °F 3.0 °F 50% 30.21 in 10.0 mi NNW 18.4 mph 27.6 mph N/A   Clear
1:52 AM 17.1 °F 0.6 °F 1.0 °F 50% 30.19 in 10.0 mi NW 19.6 mph 25.3 mph N/A   Clear
2:52 AM 14.0 °F -0.8 °F -0.0 °F 54% 30.21 in 10.0 mi NNW 13.8 mph 21.9 mph N/A   Clear
3:52 AM 12.9 °F -2.8 °F -0.0 °F 56% 30.22 in 10.0 mi NNW 15.0 mph - N/A   Clear
4:52 AM 12.0 °F -2.0 °F 1.0 °F 61% 30.21 in 10.0 mi NW 11.5 mph - N/A   Clear
5:52 AM 10.9 °F -2.6 °F 1.0 °F 64% 30.21 in 10.0 mi NNW 10.4 mph - N/A   Clear
6:52 AM 9.0 °F -4.2 °F -0.0 °F 67% 30.21 in 10.0 mi NW 9.2 mph - N/A   Clear
8:52 AM 12.0 °F -2.0 °F 1.9 °F 64% 30.21 in 10.0 mi WNW 11.5 mph - N/A   Clear
9:52 AM 17.1 °F 8.7 °F 1.9 °F 52% 30.20 in 10.0 mi NW 5.8 mph - N/A   Clear
10:52 AM 21.9 °F 14.5 °F 1.9 °F 42% 30.19 in 10.0 mi West 5.8 mph - N/A   Clear
11:52 AM 26.1 °F 19.4 °F 1.0 °F 34% 30.15 in 10.0 mi Variable 5.8 mph - N/A   Clear
12:52 PM 30.0 °F 21.7 °F -0.0 °F 28% 30.12 in 10.0 mi West 9.2 mph - N/A   Clear
1:52 PM 33.1 °F 28.7 °F -0.9 °F 23% 30.07 in 10.0 mi Variable 4.6 mph - N/A   Clear
2:52 PM 35.1 °F 29.3 °F -0.9 °F 22% 30.04 in 10.0 mi Variable 6.9 mph - N/A   Clear
3:52 PM 36.0 °F 28.5 °F -0.9 °F 21% 30.02 in 10.0 mi SW 10.4 mph - N/A   Clear
4:52 PM 34.0 °F 26.0 °F 1.0 °F 25% 30.01 in 10.0 mi SSW 10.4 mph - N/A   Clear
5:52 PM 27.0 °F 18.7 °F 1.0 °F 33% 30.03 in 10.0 mi South 8.1 mph - N/A   Clear
6:52 PM 26.1 °F 18.4 °F 1.9 °F 35% 30.03 in 10.0 mi South 6.9 mph - N/A   Clear
7:52 PM 23.0 °F 15.8 °F 1.0 °F 39% 30.04 in 10.0 mi South 5.8 mph - N/A   Clear
8:52 PM 24.1 °F 17.0 °F 1.9 °F 38% 30.04 in 10.0 mi South 5.8 mph - N/A   Clear
9:52 PM 23.0 °F 18.4 °F 1.0 °F 39% 30.04 in 10.0 mi South 3.5 mph - N/A   Clear
10:52 PM 23.0 °F 18.4 °F 3.0 °F 42% 30.04 in 10.0 mi SSW 3.5 mph - N/A   Clear
11:52 PM 23.0 °F 18.4 °F 1.9 °F 40% 30.04 in 10.0 mi SSW 3.5 mph - N/A   Clear